Satellite-Ground Cal/Val Site Overpasses Predictions

Prediction of Satellite NPP Overpassing Cal/Val Site: Antarctic Dome C

Ground Cal/Val Site Location: Latitude: -75.10, Longitude: 123.35; Satellite-Ground Site NADIR distance within 100 km.

Table of predicted overpasses for the next 14.0 days since TLE Epoch: 4/18/2015
Interval Starting Time Ending Time Minimum Distance Time Minimum Distance (km)
1 04/19/2015 15:06:19 04/19/2015 15:06:43 04/19/2015 15:06:31 52.89
2 04/20/2015 14:47:28 04/20/2015 14:47:52 04/20/2015 14:47:40 56.22
3 04/21/2015 07:49:07 04/21/2015 07:49:27 04/21/2015 07:49:17 73.05
4 04/22/2015 07:30:13 04/22/2015 07:30:40 04/22/2015 07:30:26 35.07
5 04/24/2015 15:12:33 04/24/2015 15:12:45 04/24/2015 15:12:39 90.17
6 04/25/2015 14:53:32 04/25/2015 14:54:01 04/25/2015 14:53:47 21.09
7 04/27/2015 07:36:19 04/27/2015 07:36:49 04/27/2015 07:36:34 1.39
8 04/30/2015 14:59:39 04/30/2015 15:00:08 04/30/2015 14:59:54 14.87


NCC Satellite Cal/Val Overpasses Prediction Service
